TimeCDT,TemperatureF,Dew PointF,Humidity,Sea Level PressureIn,VisibilityMPH,Wind Direction,Wind SpeedMPH,Gust SpeedMPH,PrecipitationIn,Events,Conditions,WindDirDegrees,DateUTC
12:35 AM,62.6,41.0,45,30.08,10.0,SE,9.2,-,N/A,,Clear,130,2011-10-04 05:35:00
12:55 AM,62.6,42.8,48,30.07,10.0,ESE,10.4,-,N/A,,Clear,120,2011-10-04 05:55:00
1:15 AM,62.6,42.8,48,30.07,10.0,ESE,9.2,-,N/A,,Clear,110,2011-10-04 06:15:00
1:35 AM,62.6,42.8,48,30.07,10.0,ESE,9.2,-,N/A,,Clear,110,2011-10-04 06:35:00
1:55 AM,62.6,41.0,45,30.07,10.0,ESE,9.2,-,N/A,,Clear,110,2011-10-04 06:55:00
2:35 AM,62.6,41.0,45,30.06,10.0,ESE,10.4,-,N/A,,Clear,110,2011-10-04 07:35:00
2:55 AM,59.0,41.0,51,30.05,10.0,East,9.2,-,N/A,,Clear,100,2011-10-04 07:55:00
3:15 AM,55.4,41.0,58,30.05,10.0,East,8.1,-,N/A,,Clear,90,2011-10-04 08:15:00
3:35 AM,55.4,41.0,58,30.04,10.0,East,8.1,-,N/A,,Clear,80,2011-10-04 08:35:00
3:55 AM,55.4,41.0,58,30.04,10.0,East,9.2,-,N/A,,Clear,90,2011-10-04 08:55:00
4:15 AM,55.4,41.0,58,30.04,10.0,East,8.1,-,N/A,,Clear,80,2011-10-04 09:15:00
4:35 AM,53.6,39.2,58,30.04,10.0,East,8.1,-,N/A,,Clear,80,2011-10-04 09:35:00
4:55 AM,53.6,41.0,62,30.03,10.0,East,9.2,-,N/A,,Clear,90,2011-10-04 09:55:00
5:15 AM,55.4,41.0,58,30.03,10.0,East,8.1,-,N/A,,Clear,90,2011-10-04 10:15:00
5:35 AM,55.4,41.0,58,30.03,10.0,East,9.2,-,N/A,,Clear,90,2011-10-04 10:35:00
5:55 AM,55.4,41.0,58,30.03,10.0,ESE,9.2,-,N/A,,Clear,110,2011-10-04 10:55:00
6:15 AM,55.4,41.0,58,30.03,10.0,East,5.8,-,N/A,,Clear,90,2011-10-04 11:15:00
6:35 AM,55.4,41.0,58,30.03,10.0,ESE,6.9,-,N/A,,Clear,110,2011-10-04 11:35:00
7:15 AM,55.4,42.8,63,30.03,10.0,ESE,11.5,-,N/A,,Clear,120,2011-10-04 12:15:00
7:35 AM,57.2,42.8,59,30.03,10.0,ESE,9.2,-,N/A,,Clear,110,2011-10-04 12:35:00
7:55 AM,57.2,42.8,59,30.04,10.0,ESE,8.1,-,N/A,,Clear,110,2011-10-04 12:55:00
8:15 AM,57.2,42.8,59,30.04,10.0,ESE,8.1,-,N/A,,Clear,120,2011-10-04 13:15:00
8:35 AM,59.0,42.8,55,30.04,10.0,ESE,8.1,-,N/A,,Clear,110,2011-10-04 13:35:00
9:15 AM,60.8,44.6,55,30.04,10.0,SE,11.5,-,N/A,,Clear,130,2011-10-04 14:15:00
9:35 AM,62.6,44.6,52,30.04,10.0,SSE,11.5,-,N/A,,Clear,150,2011-10-04 14:35:00
9:55 AM,64.4,44.6,49,30.04,10.0,SSE,12.7,-,N/A,,Clear,150,2011-10-04 14:55:00
10:15 AM,66.2,44.6,46,30.04,10.0,SSE,12.7,-,N/A,,Clear,150,2011-10-04 15:15:00
10:35 AM,68.0,44.6,43,30.04,10.0,SSE,13.8,-,N/A,,Clear,150,2011-10-04 15:35:00
10:55 AM,69.8,44.6,40,30.04,10.0,SSE,15.0,18.4,N/A,,Clear,150,2011-10-04 15:55:00
11:35 AM,73.4,46.4,38,30.03,10.0,SSE,13.8,-,N/A,,Clear,150,2011-10-04 16:35:00
11:55 AM,75.2,46.4,36,30.02,10.0,SSE,16.1,-,N/A,,Clear,160,2011-10-04 16:55:00
12:15 PM,75.2,46.4,36,30.02,10.0,SSE,15.0,-,N/A,,Clear,160,2011-10-04 17:15:00
12:35 PM,78.8,46.4,32,30.01,10.0,South,13.8,17.3,N/A,,Clear,170,2011-10-04 17:35:00
1:15 PM,80.6,46.4,30,30.00,10.0,SSE,16.1,-,N/A,,Clear,160,2011-10-04 18:15:00
1:35 PM,80.6,46.4,30,29.99,10.0,SSE,13.8,-,N/A,,Clear,150,2011-10-04 18:35:00
2:15 PM,84.2,46.4,27,29.97,10.0,SSE,13.8,20.7,N/A,,Clear,150,2011-10-04 19:15:00
2:35 PM,86.0,46.4,25,29.96,10.0,SSE,15.0,20.7,N/A,,Clear,160,2011-10-04 19:35:00
2:55 PM,87.8,46.4,24,29.96,10.0,SE,13.8,-,N/A,,Clear,140,2011-10-04 19:55:00
3:15 PM,87.8,46.4,24,29.96,10.0,South,12.7,-,N/A,,Clear,170,2011-10-04 20:15:00
3:35 PM,87.8,44.6,22,29.95,10.0,SSE,15.0,-,N/A,,Clear,160,2011-10-04 20:35:00
3:55 PM,87.8,44.6,22,29.94,10.0,South,12.7,23.0,N/A,,Clear,170,2011-10-04 20:55:00
4:15 PM,89.6,44.6,21,29.94,10.0,SSE,17.3,-,N/A,,Clear,160,2011-10-04 21:15:00
4:35 PM,89.6,44.6,21,29.93,10.0,SSE,17.3,23.0,N/A,,Clear,160,2011-10-04 21:35:00
4:55 PM,89.6,44.6,21,29.93,10.0,SSE,13.8,24.2,N/A,,Clear,160,2011-10-04 21:55:00
5:15 PM,87.8,44.6,22,29.93,10.0,SSE,15.0,-,N/A,,Clear,160,2011-10-04 22:15:00
5:35 PM,87.8,44.6,22,29.92,10.0,SSE,20.7,-,N/A,,Clear,160,2011-10-04 22:35:00
5:55 PM,87.8,44.6,22,29.92,10.0,SSE,12.7,18.4,N/A,,Clear,160,2011-10-04 22:55:00
6:15 PM,87.8,44.6,22,29.92,10.0,SSE,12.7,19.6,N/A,,Clear,160,2011-10-04 23:15:00
6:35 PM,84.2,44.6,25,29.93,10.0,SSE,12.7,-,N/A,,Clear,160,2011-10-04 23:35:00
6:55 PM,82.4,42.8,25,29.93,10.0,SSE,9.2,-,N/A,,Clear,150,2011-10-04 23:55:00
7:15 PM,80.6,42.8,26,29.93,10.0,SSE,10.4,-,N/A,,Clear,150,2011-10-05 00:15:00
7:35 PM,78.8,42.8,28,29.93,10.0,SSE,10.4,-,N/A,,Clear,150,2011-10-05 00:35:00
7:55 PM,78.8,42.8,28,29.94,10.0,SSE,11.5,-,N/A,,Clear,150,2011-10-05 00:55:00
8:15 PM,78.8,41.0,26,29.94,10.0,SSE,12.7,-,N/A,,Clear,150,2011-10-05 01:15:00
8:35 PM,78.8,41.0,26,29.94,10.0,SSE,13.8,-,N/A,,Clear,160,2011-10-05 01:35:00
8:55 PM,77.0,41.0,28,29.95,10.0,SSE,13.8,-,N/A,,Clear,160,2011-10-05 01:55:00
9:15 PM,75.2,42.8,31,29.95,10.0,SSE,12.7,-,N/A,,Clear,160,2011-10-05 02:15:00
9:35 PM,75.2,42.8,31,29.95,10.0,South,12.7,-,N/A,,Clear,170,2011-10-05 02:35:00
9:55 PM,75.2,42.8,31,29.95,10.0,SSE,13.8,19.6,N/A,,Clear,160,2011-10-05 02:55:00
10:15 PM,75.2,42.8,31,29.96,10.0,South,13.8,-,N/A,,Clear,170,2011-10-05 03:15:00
10:35 PM,73.4,42.8,33,29.96,10.0,South,15.0,-,N/A,,Clear,170,2011-10-05 03:35:00
10:55 PM,73.4,42.8,33,29.96,10.0,South,13.8,-,N/A,,Clear,170,2011-10-05 03:55:00
11:15 PM,73.4,42.8,33,29.97,10.0,South,11.5,-,N/A,,Clear,170,2011-10-05 04:15:00
11:35 PM,73.4,42.8,33,29.97,10.0,South,12.7,-,N/A,,Clear,170,2011-10-05 04:35:00
11:55 PM,71.6,44.6,38,29.97,10.0,South,12.7,-,N/A,,Clear,170,2011-10-05 04:55:00